[[{"header":{"parameterUnit":"m.s-1","parameterCategory":1,"la1":30.2991,"la2":30.254,"lo1":-89.0895,"lo2":-89.0444,"dy":0.0017,"dx":0.0017,"nx":28,"ny":28,"refTime":"2025-06-22T21:00:00:Z","depth":0,"parameterNumber":2,"parameterNumberName":"U-component_of_WINDS"},"data":[0,0,0,0,0,0,0,0,0,0,0,0,0,0,0,0,0,0,0,0,0,0,0,0,0,0,0,0,0,0,0,0,0,0,0,0,0,0,0,0,0,0,0,0,0,0,0,0,0,0,0,0,0,0,0,0,0,0,-0.5385,-0.5385,0,-0.5414,-0.5414,-0.5414,-0.5395,-0.5394,-0.5393,-0.5392,-0.5424,-0.5425,-0.5427,0,0,0,0,0,0,0,0,0,0,0,0,0,-0.5316,-0.5317,-0.5385,-0.5385,-0.5386,-0.5414,-0.5414,-0.5414,-0.5395,-0.5394,-0.5393,-0.5392,-0.5423,-0.5425,-0.5427,0,0,0,0,0,0,0,0,0,0,0,0,0,-0.5345,-0.5318,-0.5385,-0.5379,-0.5379,-0.5413,-0.5414,-0.5414,-0.5395,-0.5394,-0.5392,-0.5391,-0.5422,-0.5425,-0.5427,-0.547,0,0,-0.5435,-0.5436,0,0,0,0,0,0,0,0,-0.5344,-0.5348,-0.538,-0.538,-0.538,-0.5399,-0.5401,-0.5433,-0.5395,-0.5389,-0.5392,-0.5391,-0.5417,-0.542,-0.5428,-0.5471,-0.5472,-0.5435,-0.5437,-0.5438,-0.5439,0,0,0,0,0,0,0,-0.5342,-0.5347,-0.5396,-0.538,-0.538,-0.5376,-0.5379,-0.5407,-0.541,-0.539,-0.5388,-0.5392,-0.5416,-0.5426,-0.5429,-0.5473,-0.5435,-0.5437,-0.5439,-0.544,-0.5553,-0.5554,0,0,0,0,0,0,-0.534,-0.5345,-0.5395,-0.5397,-0.5358,-0.5378,-0.5381,-0.5394,-0.541,-0.5411,-0.5393,-0.5391,-0.5422,-0.5426,-0.543,-0.5481,-0.5438,-0.544,-0.5442,-0.5551,-0.5553,-0.5555,0,0,0,0,0,0,-0.5338,-0.5344,-0.5394,-0.5371,-0.5377,-0.5381,-0.5396,-0.5396,-0.5405,-0.5412,-0.5413,-0.5402,-0.5421,-0.5426,-0.546,-0.5482,-0.5441,-0.5444,-0.555,-0.5552,-0.5554,-0.5583,0,0,0,0,0,0,-0.5336,-0.5344,-0.536,-0.5371,-0.5378,-0.5423,-0.5397,-0.5397,-0.5409,-0.5406,-0.5421,-0.5422,-0.542,-0.5456,-0.5462,-0.5484,-0.5446,-0.5548,-0.5551,-0.5553,-0.558,-0.5586,-0.5591,0,0,0,0,0,-0.5334,-0.5367,-0.536,-0.5367,-0.5397,-0.5425,-0.5429,-0.5426,-0.5411,-0.5427,-0.5432,-0.5421,-0.5478,-0.546,-0.5467,-0.549,-0.5546,-0.555,-0.5553,-0.5578,-0.5585,-0.5591,0,0,0,0,0,0,-0.5359,-0.5368,-0.5361,-0.5399,-0.5411,-0.5421,-0.5442,-0.5433,-0.5451,-0.5448,-0.5444,-0.5448,-0.5483,-0.549,-0.5469,-0.5532,-0.551,-0.5515,-0.5526,-0.5533,-0.5538,-0.5536,-0.5448,0,0,0,0,0,-0.5368,-0.5389,-0.5396,-0.5429,-0.5435,-0.5437,-0.5449,-0.5446,-0.5459,-0.5464,-0.5471,-0.5485,-0.5506,-0.552,-0.5539,-0.5581,-0.5584,-0.56,-0.5605,-0.561,-0.5614,-0.5637,-0.5645,-0.5566,-0.5566,-0.5566,0,0,-0.5389,-0.5396,-0.541,-0.5434,-0.5443,-0.5465,-0.5442,-0.5466,-0.5483,-0.5468,-0.55,-0.5506,-0.5521,-0.5559,-0.5576,-0.5565,-0.5637,-0.5614,-0.5617,-0.562,-0.5642,-0.5649,-0.5656,-0.5568,-0.5568,-0.5567,0,0,-0.5437,-0.5445,-0.5473,-0.5482,-0.5496,-0.5497,-0.5504,-0.5516,-0.5519,-0.5551,-0.554,-0.556,-0.5596,-0.5607,-0.5618,-0.5671,-0.5662,-0.5677,-0.5706,-0.5729,-0.5735,-0.574,-0.576,-0.5767,-0.5682,-0.5682,-0.5682,0,-0.5461,-0.5493,-0.5489,-0.5514,-0.5525,-0.5512,-0.5541,-0.555,-0.557,-0.5579,-0.5566,-0.5611,-0.562,-0.5661,-0.5674,-0.5682,-0.5691,-0.5676,-0.5734,-0.574,-0.5745,-0.5764,-0.5771,-0.5684,-0.5683,-0.5683,-0.5683,0,-0.5523,-0.5545,-0.5566,-0.5585,-0.5599,-0.5626,-0.5626,-0.564,-0.5636,-0.5639,-0.5672,-0.5682,-0.5704,-0.5713,-0.5709,-0.5754,-0.5747,-0.5734,-0.5713,-0.5754,-0.5772,-0.5779,-0.5686,-0.5685,-0.5685,-0.5685,0,0,-0.5588,-0.5604,-0.5612,-0.562,-0.5634,-0.5652,-0.5679,-0.5699,-0.5712,-0.5726,-0.5749,-0.578,-0.5768,-0.578,-0.5778,-0.5797,-0.584,-0.5783,-0.5783,-0.5794,-0.589,-0.59,-0.5909,-0.5834,-0.5835,-0.5836,-0.5889,0,-0.5638,-0.5684,-0.568,-0.5724,-0.5745,-0.5733,-0.5756,-0.5768,-0.5771,-0.579,-0.5794,-0.5816,-0.5799,-0.5806,-0.5825,-0.5831,-0.5859,-0.5827,-0.5856,-0.5857,-0.5854,-0.5918,-0.5928,-0.5978,-0.5896,-0.5897,-0.5898,0,-0.5703,-0.5719,-0.5764,-0.5775,-0.5784,-0.5805,-0.5824,-0.5842,-0.5855,-0.5856,-0.587,-0.5864,-0.5891,-0.5868,-0.5907,-0.5885,-0.5897,-0.5901,-0.5903,-0.5907,-0.5881,-0.5924,-0.5994,-0.6002,-0.5909,-0.5908,-0.5907,0,-0.5747,-0.578,-0.5811,-0.5819,-0.5833,-0.5848,-0.5854,-0.5866,-0.5879,-0.5896,-0.5904,-0.5924,-0.5935,-0.5951,-0.5951,-0.5934,-0.5991,-0.5967,-0.5993,-0.5993,-0.6006,-0.6006,-0.608,-0.6013,-0.6012,-0.6012,-0.6012,0,-0.5804,-0.5833,-0.5832,-0.5851,-0.5883,-0.5879,-0.5911,-0.5916,-0.5927,-0.5948,-0.5938,-0.5958,-0.5956,-0.5977,-0.5977,-0.6009,-0.6014,-0.6017,-0.6017,-0.6018,-0.6018,-0.6027,-0.6024,-0.6014,-0.6014,-0.6013,-0.6013,0,-0.586,-0.586,-0.5894,-0.5903,-0.5907,-0.593,-0.5939,-0.5958,-0.596,-0.5987,-0.5993,-0.5997,-0.602,-0.6021,-0.6049,-0.6049,-0.6089,-0.6085,-0.6084,-0.6084,-0.611,-0.6108,-0.6194,-0.6205,-0.6129,-0.613,-0.613,0,-0.5897,-0.5918,-0.593,-0.5943,-0.595,-0.5971,-0.5984,-0.5981,-0.5995,-0.6012,-0.6029,-0.6051,-0.6069,-0.6108,-0.6114,-0.6135,-0.6132,-0.616,-0.6135,-0.6136,-0.6133,-0.6132,-0.6135,-0.6165,-0.6166,-0.6167,-0.6167,0,-0.5962,-0.5961,-0.5979,-0.5998,-0.6013,-0.6028,-0.6042,-0.6053,-0.6051,-0.6068,-0.6091,-0.6105,-0.6133,-0.6156,-0.6176,-0.6184,-0.6176,-0.6175,-0.6182,-0.6185,-0.6184,-0.6186,-0.6099,-0.6173,-0.6173,-0.6172,-0.6172,-0.6172,-0.601,-0.6029,-0.6041,-0.6061,-0.6071,-0.6084,-0.6102,-0.6107,-0.6126,-0.6148,-0.6145,-0.6172,-0.6185,-0.6211,-0.6221,-0.6242,-0.6232,-0.6243,-0.6245,-0.6248,-0.6252,-0.618,-0.6245,-0.6245,-0.6245,-0.6245,-0.6245,0,-0.6077,-0.6083,-0.6102,-0.6121,-0.6138,-0.6127,-0.6142,-0.6157,-0.618,-0.6193,-0.621,-0.6238,-0.626,-0.6267,-0.6289,-0.6305,-0.6302,-0.6311,-0.631,-0.6312,-0.6258,-0.625,-0.6313,-0.6313,-0.6313,-0.6313,-0.6313,-0.6313,-0.6113,-0.6144,-0.6145,-0.6181,-0.6188,-0.6213,-0.6222,-0.6235,-0.6245,-0.6275,-0.6294,-0.6298,-0.6309,-0.6331,-0.6351,-0.6353,-0.6362,-0.6372,-0.6373,-0.6323,-0.6316,-0.6309,-0.6302,-0.6374,-0.6374,-0.6425,-0.6425,-0.6426]},{"header":{"parameterUnit":"m.s-1","parameterCategory":1,"la1":30.2991,"la2":30.254,"lo1":-89.0895,"lo2":-89.0444,"dy":0.0017,"dx":0.0017,"nx":28,"ny":28,"refTime":"2025-06-22T21:00:00:Z","depth":0,"parameterNumber":3,"parameterNumberName":"V-component_of_WINDS"},"data":[0,0,0,0,0,0,0,0,0,0,0,0,0,0,0,0,0,0,0,0,0,0,0,0,0,0,0,0,0,0,0,0,0,0,0,0,0,0,0,0,0,0,0,0,0,0,0,0,0,0,0,0,0,0,0,0,0,0,2.536,2.5361,0,2.5379,2.5379,2.5379,2.5341,2.534,2.5338,2.5337,2.5356,2.5357,2.5359,0,0,0,0,0,0,0,0,0,0,0,0,0,2.529,2.5291,2.536,2.5361,2.5361,2.5379,2.5379,2.538,2.5341,2.5339,2.5338,2.5337,2.5355,2.5357,2.5359,0,0,0,0,0,0,0,0,0,0,0,0,0,2.5316,2.5292,2.536,2.5344,2.5342,2.5379,2.5379,2.538,2.5341,2.5339,2.5338,2.5336,2.5355,2.5357,2.5359,2.5413,0,0,2.5367,2.5368,0,0,0,0,0,0,0,0,2.5314,2.5318,2.5346,2.5345,2.5344,2.5356,2.5361,2.5391,2.5342,2.5342,2.5337,2.5335,2.5357,2.5359,2.5367,2.5414,2.5414,2.5367,2.5369,2.537,2.5371,0,0,0,0,0,0,0,2.5313,2.5317,2.5368,2.5346,2.5345,2.5335,2.5337,2.5367,2.536,2.5342,2.5339,2.5342,2.5356,2.5365,2.5367,2.5415,2.5367,2.537,2.5371,2.5372,2.5504,2.5506,0,0,0,0,0,0,2.5313,2.5316,2.5367,2.5368,2.5324,2.5338,2.534,2.5354,2.5359,2.5358,2.5343,2.534,2.5361,2.5364,2.5368,2.5429,2.537,2.5372,2.5374,2.5502,2.5505,2.5507,0,0,0,0,0,0,2.5312,2.5318,2.5366,2.5341,2.5347,2.5341,2.5357,2.5355,2.5363,2.5361,2.5359,2.5353,2.536,2.5364,2.5401,2.5429,2.5373,2.5376,2.55,2.5503,2.5506,2.5553,0,0,0,0,0,0,2.531,2.5318,2.5338,2.5342,2.5348,2.54,2.5359,2.5357,2.5368,2.5364,2.537,2.5369,2.5359,2.5398,2.5404,2.5432,2.5378,2.5497,2.5501,2.5505,2.5549,2.5558,2.5565,0,0,0,0,0,2.5307,2.5351,2.5339,2.5346,2.5374,2.5402,2.5405,2.5393,2.537,2.5391,2.5389,2.5369,2.5426,2.5402,2.5409,2.5438,2.5495,2.55,2.5505,2.5546,2.5556,2.5565,0,0,0,0,0,0,2.5351,2.5351,2.5338,2.5385,2.5394,2.5395,2.5421,2.5405,2.542,2.5415,2.5399,2.5401,2.5441,2.5443,2.5417,2.5489,2.5457,2.5463,2.5486,2.5495,2.5503,2.5501,2.538,0,0,0,0,0,2.5366,2.5389,2.5388,2.5429,2.5434,2.5427,2.5439,2.5428,2.5437,2.544,2.5441,2.545,2.5469,2.5483,2.5501,2.555,2.555,2.5573,2.558,2.5587,2.5592,2.5617,2.5626,2.5522,2.5522,2.5522,0,0,2.5397,2.54,2.5416,2.5438,2.5443,2.5467,2.543,2.5457,2.5474,2.5444,2.5479,2.548,2.5489,2.5532,2.5551,2.5535,2.5621,2.5593,2.5598,2.5599,2.5622,2.5632,2.5641,2.5525,2.5524,2.5524,0,0,2.5465,2.547,2.5504,2.5511,2.5519,2.5514,2.5522,2.5527,2.5526,2.5561,2.5538,2.5559,2.5593,2.56,2.5608,2.5678,2.5659,2.5684,2.5724,2.5749,2.5757,2.5764,2.5788,2.5797,2.5689,2.569,2.569,0,2.5502,2.5537,2.5524,2.5552,2.5562,2.5536,2.557,2.5576,2.5591,2.5598,2.558,2.5622,2.5626,2.5669,2.5686,2.5694,2.5702,2.5683,2.5757,2.5764,2.577,2.5793,2.5802,2.5692,2.5692,2.5692,2.5692,0,2.5582,2.5607,2.5633,2.5647,2.566,2.5691,2.5682,2.5696,2.5685,2.5681,2.5717,2.5721,2.5738,2.5748,2.5738,2.579,2.5779,2.576,2.5727,2.5783,2.5804,2.5813,2.5696,2.5695,2.5695,2.5694,0,0,2.5678,2.5684,2.5694,2.5699,2.5707,2.5725,2.5755,2.5772,2.5784,2.5795,2.5819,2.5848,2.5829,2.5838,2.5828,2.585,2.5903,2.5827,2.5827,2.584,2.596,2.5974,2.5984,2.5891,2.5893,2.5894,2.5958,0,2.5745,2.5795,2.5784,2.5833,2.5855,2.583,2.5855,2.5863,2.586,2.5878,2.5875,2.5895,2.587,2.5875,2.5895,2.5892,2.5927,2.5888,2.5912,2.5913,2.591,2.5995,2.6011,2.6071,2.5967,2.5968,2.5969,0,2.583,2.5843,2.5895,2.5897,2.5906,2.5929,2.5943,2.5961,2.5968,2.5965,2.5974,2.596,2.5988,2.5956,2.5994,2.5967,2.5977,2.5977,2.5979,2.598,2.5944,2.5997,2.609,2.6099,2.5982,2.5981,2.598,0,2.5893,2.5924,2.5958,2.5964,2.5969,2.5985,2.5988,2.5993,2.6004,2.6016,2.6023,2.6039,2.6047,2.606,2.6049,2.6027,2.6089,2.6056,2.6086,2.6086,2.6099,2.6098,2.6193,2.6107,2.6107,2.6107,2.6107,0,2.5968,2.6,2.5987,2.6008,2.6043,2.6029,2.6064,2.6064,2.6068,2.6088,2.6069,2.6088,2.6073,2.6091,2.6084,2.6116,2.612,2.6117,2.6114,2.6118,2.6119,2.6123,2.6119,2.6109,2.6109,2.6108,2.6108,0,2.6044,2.6037,2.6072,2.6074,2.6075,2.61,2.6101,2.612,2.6116,2.6142,2.6147,2.614,2.616,2.6151,2.6172,2.6167,2.6208,2.62,2.6205,2.6203,2.6233,2.623,2.6334,2.6346,2.6253,2.6254,2.6255,0,2.6092,2.6116,2.612,2.6132,2.6136,2.6156,2.6166,2.6153,2.6165,2.6174,2.6192,2.6211,2.6224,2.6257,2.6254,2.627,2.6261,2.6297,2.6264,2.6266,2.6261,2.6259,2.6261,2.6303,2.6304,2.6305,2.6306,0,2.6178,2.6172,2.6189,2.6203,2.6217,2.6228,2.6237,2.6248,2.6235,2.6249,2.6269,2.628,2.6301,2.6319,2.6333,2.6335,2.6318,2.6316,2.6324,2.6328,2.6329,2.6327,2.6222,2.6314,2.6313,2.6313,2.6312,2.6312,2.624,2.626,2.6265,2.6284,2.6289,2.6298,2.6316,2.6313,2.633,2.6346,2.6337,2.636,2.6366,2.6382,2.6387,2.6404,2.639,2.6401,2.6404,2.6407,2.641,2.6327,2.6407,2.6407,2.6406,2.6406,2.6406,0,2.6324,2.6325,2.6343,2.6356,2.637,2.6353,2.6362,2.6375,2.6396,2.6402,2.6416,2.6438,2.6456,2.6454,2.6469,2.6483,2.6476,2.6488,2.6486,2.6486,2.6422,2.6414,2.6493,2.6493,2.6493,2.6493,2.6493,2.6493,2.6368,2.64,2.6396,2.643,2.6432,2.6454,2.646,2.6468,2.6473,2.6499,2.6513,2.6511,2.6514,2.653,2.6544,2.6543,2.6549,2.6564,2.656,2.65,2.6491,2.6483,2.6475,2.6566,2.6566,2.6622,2.6623,2.6623]}]]